Location: Newark
(48.5156°N, 1.8989°W)
Time: 21:12:03
(UTC+00:00)

X-37B - Visible Passes

Search period start: 20 September 2020 00:00
Search period end: 30 September 2020 00:00
Orbit: 386 x 387 km, 45.0° (Epoch: 18 September)

Date Brightness Start Highest point End Pass type
(mag) Time Alt. Az. Time Alt. Az. Time Alt. Az.
20 Sep 3.7 03:05:33 12° ESE 03:05:33 12° ESE 03:05:52 10° ESE visible
20 Sep 1.4 04:37:50 24° WSW 04:39:10 37° S 04:42:08 10° ESE visible
21 Sep 2.3 03:42:02 26° SE 03:42:02 26° SE 03:43:43 10° ESE visible
21 Sep 2.2 05:14:23 10° WSW 05:16:54 21° SSW 05:19:25 10° SSE visible
22 Sep 1.7 04:18:37 29° SSW 04:18:37 29° SSW 04:21:19 10° SE visible
23 Sep 2.6 04:55:19 14° SW 04:56:08 15° SSW 04:58:01 10° S visible
24 Sep 3.2 03:59:50 12° SSE 03:59:50 12° SSE 04:00:16 10° SSE visible
